GFSFLT1_prec_cthk_168.txt.gz
RH
37 37 36 34 32 31 31 31 31 32 34 35 34 32 32 33 31 28 25 23 22 20 18 17 16 15 14 13 13 13 12 12
37 40 42 41 40 40 39 38 36 34 34 33 34 34 35 35 33 30 28 28 27 23 21 19 17 16 15 15 16 15 14 13
42 43 48 50 49 46 45 43 41 40 40 38 38 37 37 37 37 34 33 32 30 27 24 21 20 19 19 19 19 19 20 19
45 48 51 53 54 51 52 51 48 44 45 46 46 45 45 44 41 38 37 36 33 30 27 25 23 22 23 22 22 22 24 26
45 49 54 60 63 61 57 59 57 54 52 51 52 53 52 50 51 51 46 41 37 34 31 28 26 25 25 25 26 25 26 26
43 50 57 64 68 68 64 63 62 62 57 57 55 52 51 55 55 54 52 47 42 38 33 30 29 28 28 26 25 24 26 27
49 54 63 70 75 72 63 64 63 60 58 57 55 53 52 55 54 51 49 49 46 45 42 37 34 31 27 25 26 28 28 29
51 55 68 76 75 70 66 66 64 60 60 61 61 60 60 55 55 52 49 46 44 42 39 34 30 27 26 28 29 30 31 31
64 71 74 71 72 72 70 70 68 64 66 67 61 57 60 57 56 54 53 50 45 41 37 36 32 31 32 33 33 30 30 31
69 65 62 64 66 68 69 67 66 68 68 63 64 62 60 60 57 50 43 39 35 30 26 24 23 23 23 25 27 29 30 32
63 63 62 61 64 67 63 65 66 66 62 59 61 59 60 55 48 41 37 33 28 24 21 18 19 21 22 25 29 29 30 32
58 59 57 61 64 64 64 68 67 64 64 65 67 62 56 50 44 36 23 17 14 15 18 20 22 25 24 23 23 23 25 28
58 62 64 67 66 68 69 65 70 71 73 75 69 60 46 39 28 19 18 22 21 17 13 12 13 15 17 18 19 21 21 23
60 63 73 71 72 72 68 70 77 77 75 64 56 47 37 30 25 22 16 12 11 9 7 7 8 9 9 9 10 10 10 10
68 78 76 74 76 71 73 79 78 74 66 58 47 39 25 17 15 13 11 10 9 8 8 9 9 9 9 9 9 9 9 10
67 74 86 83 80 77 87 83 76 72 59 49 35 18 16 14 14 13 12 10 9 10 11 12 12 13 13 13 13 13 14 14
68 83 89 84 78 95 88 83 75 60 50 30 19 16 14 15 14 13 13 12 13 13 14 15 16 17 17 17 17 17 17 17
78 83 83 84 91 95 85 73 61 49 35 22 16 14 15 14 14 15 16 16 17 17 18 18 18 19 19 20 20 20 20 20
76 82 88 91 90 81 71 62 53 36 22 14 15 15 14 14 15 18 18 19 20 20 20 20 20 20 21 22 22 23 23 24

GFSFLT1_prec_cthk_174.txt.gz
RH
39 42 43 43 42 44 44 42 43 44 43 44 44 44 43 42 41 40 38 37 37 36 34 32 30 29 26 24 22 20 18 16
42 45 47 46 46 46 48 50 50 50 50 46 45 46 46 46 46 45 45 43 42 41 40 38 36 33 28 26 24 21 19 18
48 49 49 48 50 51 53 55 55 52 51 49 49 49 48 47 50 50 48 47 46 47 47 44 42 41 38 35 31 26 24 21
47 47 48 49 53 55 57 58 59 57 55 55 53 53 55 57 60 56 54 55 54 51 48 44 37 37 36 34 33 34 36 33
41 44 47 50 50 50 56 61 62 60 61 61 64 63 65 58 53 54 55 53 51 49 44 38 34 33 34 34 34 34 37 39
39 44 48 53 57 62 65 65 63 66 65 64 61 58 56 55 53 52 51 49 48 42 39 39 37 36 36 35 34 37 35 35
43 48 52 55 59 62 66 64 62 63 63 62 58 54 51 50 50 52 52 47 43 42 40 40 40 40 37 34 34 34 34 35
40 45 49 50 56 59 57 60 59 59 58 58 54 50 51 53 54 53 49 50 46 45 42 37 33 34 34 33 30 29 30 30
37 42 45 48 48 53 55 55 52 51 50 51 52 57 58 58 58 52 50 51 48 46 42 39 35 27 23 23 22 23 25 27
38 40 43 44 46 47 48 48 51 53 56 58 58 61 60 57 54 51 50 52 48 41 30 24 22 22 23 22 22 22 22 23
42 42 42 45 46 47 52 55 57 57 60 61 64 64 62 56 60 60 56 43 35 27 21 16 11 8 8 7 6 6 7 8
41 41 44 48 51 54 58 59 63 67 67 67 68 66 68 69 61 52 41 31 20 9 7 7 7 7 6 5 5 6 6 6
42 44 46 49 54 59 62 66 68 73 72 71 71 72 69 64 53 40 28 13 6 6 7 7 8 9 9 9 10 10 10 11
41 43 45 50 57 63 70 71 74 81 83 78 78 75 69 55 43 29 14 7 7 8 9 10 11 12 12 13 13 13 14 14
38 45 52 56 59 66 73 75 78 80 85 78 81 69 54 44 30 17 10 7 9 10 11 12 13 14 15 15 16 16 17 17
43 50 54 58 61 68 73 73 86 78 76 84 76 58 46 34 21 13 8 9 11 12 13 14 15 16 17 18 20 21 22 22
49 51 55 59 62 68 72 86 78 75 87 81 63 46 42 26 14 9 10 12 13 14 15 16 17 18 19 19 18 18 19 20
58 63 64 68 72 73 82 81 79 90 85 70 53 45 26 13 11 11 13 14 15 16 17 17 17 14 14 14 14 14 15 16
58 60 64 69 75 80 86 85 89 88 76 58 38 21 13 11 12 13 15 16 17 18 17 15 14 14 14 13 13 14 14 15

GFSFLT1_prec_cthk_177.txt.gz
RH
42 41 41 42 42 42 41 42 44 44 44 45 46 47 46 45 45 45 43 40 40 40 39 37 36 34 33 32 30 28 26 25
42 43 43 45 46 45 45 46 48 48 48 50 51 50 49 48 47 49 50 47 45 44 41 40 38 36 36 34 33 33 33 30
43 44 47 49 50 49 48 49 50 52 54 54 54 52 51 53 56 54 52 50 48 45 43 43 42 40 38 39 37 34 29 27
46 48 50 51 53 53 52 54 56 57 57 55 54 55 57 54 52 50 49 48 48 46 43 41 39 37 34 33 32 31 31 30
44 45 48 50 51 53 55 57 56 54 53 52 52 53 53 52 48 46 46 46 43 43 40 36 35 33 32 33 31 31 34 34
41 42 44 46 48 51 54 56 60 59 58 56 56 53 51 50 50 47 43 42 41 39 39 40 40 42 40 37 35 33 33 34
42 46 48 53 57 60 62 63 59 60 57 54 50 49 45 44 42 43 44 42 39 38 41 41 44 42 39 36 36 35 34 33
43 46 47 49 51 55 58 60 61 59 55 47 41 41 42 44 48 47 43 41 39 39 40 41 40 36 34 30 27 26 26 25
42 42 45 46 49 51 52 55 52 46 44 43 43 46 47 49 48 46 43 42 45 44 43 37 31 27 24 23 23 23 23 23
36 37 42 44 43 43 44 45 45 45 45 46 50 52 52 54 51 48 48 50 47 40 31 24 17 10 7 5 5 5 5 5
40 39 41 40 40 40 42 45 48 50 51 56 60 62 59 57 56 56 53 45 37 26 17 7 6 6 6 6 5 6 6 6
45 41 43 43 43 44 48 51 54 56 59 64 71 71 64 63 57 53 48 35 26 16 8 6 7 8 9 9 10 10 10 11
48 46 47 48 46 46 51 54 59 64 64 69 76 78 72 65 59 50 37 28 18 11 7 8 9 10 11 12 13 13 13 14
46 43 45 46 44 49 53 58 64 67 71 75 76 71 74 67 53 41 30 21 14 8 9 10 11 12 13 14 15 16 17 18
40 38 43 40 46 53 56 61 65 69 71 81 75 72 74 58 44 33 23 17 10 10 11 12 13 15 16 18 19 20 21 21
35 37 38 45 53 59 61 65 65 73 79 80 70 79 67 49 37 26 21 15 10 12 12 13 15 16 17 16 15 15 16 17
39 42 46 51 54 58 64 68 68 72 86 74 81 77 59 46 36 24 16 11 12 13 14 15 16 14 12 12 13 13 14 15
47 48 54 59 61 66 69 76 81 92 82 84 83 69 52 43 21 12 12 12 14 14 15 15 12 11 12 12 12 12 12 13
54 54 58 60 63 66 71 80 88 86 88 88 75 57 36 16 11 11 13 15 16 16 16 13 12 12 12 13 13 13 13 14

GFSFLT1_prec_cthk_180.txt.gz
RH
43 44 44 43 43 43 42 42 43 44 45 45 45 45 44 44 45 45 45 44 43 43 42 40 37 36 35 34 33 32 32 30
45 46 48 46 45 45 45 46 47 49 52 55 54 55 51 50 50 49 47 48 49 45 43 41 37 35 33 30 29 28 31 30
47 49 52 50 48 47 48 51 53 57 57 56 56 56 56 55 53 51 48 45 42 39 38 36 34 33 30 30 29 32 33 29
51 53 55 54 52 53 54 58 60 61 59 57 56 56 56 55 51 48 45 43 40 38 34 31 30 27 29 30 31 32 35 36
50 53 55 57 58 57 57 57 59 59 59 60 60 58 55 54 50 48 45 40 39 35 31 28 28 31 32 34 35 37 37 38
51 51 52 54 54 54 56 56 57 58 58 60 57 56 53 51 48 42 39 35 33 31 30 31 31 32 34 34 34 35 37 39
45 46 47 49 52 54 56 58 60 58 58 56 57 55 52 50 42 39 38 36 33 30 30 32 36 35 31 29 29 30 31 33
47 48 51 52 55 59 62 63 61 60 60 58 54 53 47 42 42 42 40 36 32 33 35 37 31 27 24 23 20 20 20 24
43 43 46 50 55 57 59 59 58 58 55 51 45 41 44 44 43 42 38 39 39 38 35 29 26 19 13 7 5 7 7 12
47 47 47 47 52 52 51 50 50 47 47 47 46 48 46 48 47 44 44 41 40 36 29 24 18 11 5 5 7 9 11 13
53 50 47 47 47 46 45 44 44 47 51 56 52 50 52 57 54 51 45 43 37 29 24 19 12 7 7 9 12 12 15 16
57 57 60 56 54 52 48 49 51 54 62 56 55 56 56 61 61 54 50 42 33 28 21 14 9 8 10 11 12 14 16 19
58 62 59 60 58 58 59 54 56 59 57 60 63 63 62 59 57 55 46 38 34 23 16 14 9 10 11 12 14 15 17 20
60 62 57 55 53 50 52 55 55 58 61 68 68 69 67 64 59 51 44 37 27 18 18 12 11 12 13 15 17 19 20 20
51 52 50 51 50 42 53 51 59 65 69 70 70 74 67 64 58 49 41 34 22 18 13 12 12 14 16 18 17 18 17 17
37 33 35 42 40 42 47 59 66 71 73 70 75 77 69 64 54 46 39 29 24 16 12 13 14 15 15 12 12 13 14 15
49 45 41 37 45 52 61 66 70 73 75 77 84 77 74 67 52 44 36 30 21 13 13 14 15 13 11 11 11 12 12 12
55 49 48 52 55 60 69 71 76 80 82 86 91 87 80 65 49 42 28 18 14 13 14 14 13 11 11 11 11 12 12 13
62 61 61 62 64 68 73 76 78 81 83 90 89 91 82 60 43 24 17 16 15 16 15 14 12 11 11 12 13 14 14 14

GFSFLT1_prec_cthk_183.txt.gz
RH
48 47 48 48 49 48 48 48 47 46 46 47 49 48 49 49 47 43 42 42 42 44 44 40 43 43 40 33 30 32 30 29
49 50 50 51 53 54 55 54 53 53 53 51 52 53 54 53 50 47 47 46 44 43 49 45 42 39 31 27 25 27 27 27
50 52 56 57 58 58 58 57 56 56 56 59 60 59 58 58 57 52 50 46 45 44 41 39 33 35 32 25 23 26 30 31
50 52 55 57 61 64 64 62 61 61 62 62 64 63 61 59 57 54 46 45 42 39 35 33 31 30 29 25 23 27 29 31
52 54 59 62 62 62 63 64 63 65 67 69 66 66 63 58 52 51 48 41 39 33 30 29 28 31 27 28 28 31 31 30
49 52 55 59 64 65 66 69 70 70 68 66 64 61 56 53 55 53 45 41 35 29 30 28 28 29 32 30 30 31 30 29
47 51 54 57 58 61 61 61 61 64 67 68 65 63 60 59 56 48 49 42 36 31 28 31 30 28 27 30 29 25 23 20
47 46 48 50 52 58 60 62 64 71 75 71 72 69 63 55 48 45 39 41 39 34 34 32 27 25 24 25 21 15 11 13
45 48 49 50 52 56 56 58 59 63 68 69 63 58 55 48 44 46 46 41 42 36 33 28 23 22 20 19 16 14 13 13
49 45 50 52 56 59 60 62 65 68 69 67 57 54 51 47 51 48 48 47 40 38 35 28 21 18 18 18 16 14 14 15
49 49 53 56 59 59 58 59 57 55 55 55 54 53 54 56 50 46 54 48 48 42 34 27 25 21 21 17 15 16 16 16
57 59 62 62 61 66 67 60 58 54 54 54 58 61 63 54 52 50 55 50 50 42 34 31 27 23 19 16 16 17 19 21
69 69 68 66 63 68 68 70 69 71 70 69 71 69 58 59 57 62 57 52 46 42 36 29 24 21 17 17 18 20 22 23
61 64 68 68 69 71 71 69 66 67 69 70 66 63 63 66 65 60 60 53 46 41 36 29 22 16 17 19 20 22 22 23
53 49 50 63 66 65 67 74 69 64 69 66 66 69 68 70 64 66 60 50 44 43 34 24 18 12 14 18 21 20 19 17
49 45 45 46 47 50 60 61 64 55 62 65 72 72 75 74 68 69 58 48 42 34 28 23 15 13 15 15 16 16 19 17
50 51 53 54 50 48 53 56 51 59 64 75 79 78 83 82 79 71 56 50 42 34 29 22 13 13 11 10 10 11 11 11
62 60 57 60 58 60 56 62 69 73 79 82 82 83 90 86 84 69 56 51 44 31 22 18 13 12 10 10 10 10 11 12
66 64 63 67 67 67 72 71 74 80 83 83 86 88 92 88 81 66 56 46 26 13 12 12 13 11 10 10 11 12 12 13